Orbital Elements
Epoch 2012 Dec. 19.0 TT = JDT 2456280.5
T 2012 Dec. 13.47104 TT MPCW
q 2.3418405 (2000.0) P Q
n 0.14859861 Peri. 31.05779 -0.81881303 +0.57385954
a 3.5301477 Node 184.06074 -0.56081563 -0.80528935
e 0.3366168 Incl. 12.37871 -0.12260122 -0.14897747
P 6.63
From 55 observations 2006 Mar. 26-2019 Apr. 3, mean residual 0".6.
|